Vorticity
11 16 22 -20 -10 -8 0 10 13 9 8 5 19 10 -17 -18 -7 1 9 14 13 13 7 5 17 16 17 8 7 10 -4 16 9 7 7 3 8 4 12 21 17 17 10 13
22 16 16 24 23 6 -26 -6 1 5 10 -34 -33 3 10 9 5 16 12 9 11 15 20 23 18 12 6 6 6 9 10 9 2 2 7 6 4 8 16 1 17 11 12 8
7 2 5 4 32 33 25 29 24 19 20 19 22 12 9 13 2 10 14 13 1 12 3 5 3 6 9 6 7 6 10 8 9 5 11 16 15 16 16 16 12 14 14 12
5 8 2 5 -2 -0 9 10 15 16 13 17 16 12 15 15 14 11 10 -11 15 -4 14 6 7 8 8 10 11 10 13 12 13 12 11 11 13 14 14 14 14 15 14 17
9 13 12 7 12 17 9 18 14 10 16 0 17 9 7 9 12 15 14 20 13 16 13 11 13 13 10 8 10 11 11 12 11 15 18 17 17 21 23 23 25 26 23 22
10 10 12 15 16 13 10 -3 21 28 14 16 10 6 4 14 22 14 18 20 14 12 9 6 6 7 8 11 12 13 12 17 20 18 23 23 20 16 15 14 17 19 20 20
17 17 15 20 17 -5 12 15 16 37 15 9 12 10 5 13 3 13 13 8 4 8 5 9 8 10 14 12 13 18 20 19 20 19 17 14 12 13 14 15 17 18 17 21
15 12 12 16 20 17 10 -4 13 -1 -0 7 10 11 13 20 4 7 3 3 1 7 10 11 19 13 10 16 19 18 18 16 15 13 13 13 12 10 11 11 12 15 25 20
-4 11 19 1 18 20 7 19 11 14 10 10 13 8 14 6 13 10 9 4 14 10 17 16 2 20 21 17 20 13 14 17 15 15 17 15 13 9 10 16 18 20 18 25
14 24 -1 10 -1 3 25 18 25 11 10 17 4 7 18 9 4 4 10 13 18 21 8 6 18 16 20 14 13 20 15 12 11 11 7 10 13 14 14 16 20 21 28 27
-1 13 21 8 23 10 14 20 17 -2 23 20 13 25 16 10 11 11 17 23 4 3 10 20 15 20 11 16 13 9 7 7 5 5 6 8 12 11 13 13 9 18 21 30
13 13 10 12 13 13 6 12 2 18 31 5 3 8 14 16 17 19 19 7 4 16 19 15 18 10 13 9 6 4 3 3 3 2 3 4 5 6 12 14 12 8 11 21
11 9 15 20 12 7 30 28 13 18 2 1 9 11 19 18 13 6 -5 16 24 10 16 16 9 11 6 6 2 2 4 4 5 4 4 5 7 7 9 6 11 10 7 10
11 17 7 1 18 24 4 -2 15 9 4 13 26 19 -3 8 5 19 24 15 7 17 16 8 10 6 4 2 3 3 2 2 3 4 3 3 3 7 9 12 10 12 9 9
14 7 23 25 25 -8 13 6 7 6 21 19 8 0 25 18 13 17 8 9 18 14 8 10 6 7 2 2 3 2 1 2 3 4 4 3 4 4 5 10 11 12 12 9
21 12 13 6 17 7 5 6 5 25 14 12 8 18 9 15 12 6 12 16 12 9 9 7 8 4 2 2 3 3 4 3 3 3 2 3 4 3 5 5 8 9 10 12
17 18 2 9 7 8 5 12 18 17 10 1 15 9 13 12 7 14 14 12 9 8 9 8 6 2 3 4 2 2 2 1 2 3 5 5 3 5 4 5 5 7 8 9
3 17 16 16 17 11 11 15 18 9 -4 11 13 11 15 9 12 10 11 12 10 9 8 8 4 4 5 3 3 3 3 3 4 4 4 5 4 3 4 5 5 5 7 8
13 1 3 17 13 18 16 6 14 -1 11 17 10 16 9 8 10 11 10 9 10 10 10 5 4 5 6 5 5 5 5 4 5 5 5 5 6 6 4 5 6 5 6 7
10 -6 2 11 13 19 6 9 12 14 13 9 15 11 7 9 11 11 10 6 9 10 10 7 6 6 6 6 6 6 6 6 6 6 5 5 6 6 6 5 5 6 5 7
-3 -12 20 16 18 4 8 19 10 10 11 11 13 10 6 7 10 10 7 8 7 9 8 6 5 6 5 5 6 5 6 6 6 6 5 5 5 7 7 6 5 6 6 7
14 18 28 6 13 10 14 8 8 10 6 11 12 11 7 6 10 9 7 6 6 6 7 6 5 5 5 4 4 3 4 4 4 5 5 5 5 6 7 7 7 6 6 7
19 25 5 8 1 12 10 7 10 6 6 10 11 10 9 6 7 9 8 7 5 4 3 3 4 4 4 5 5 5 6 7 7 6 6 5 5 5 6 8 7 7 6 7
23 4 4 6 -4 10 10 9 8 7 6 7 10 10 9 10 8 8 9 8 7 6 6 6 7 8 8 8 9 10 10 9 7 6 6 6 5 5 5 8 8 6 6 8
3 3 2 12 9 9 6 8 8 6 6 8 7 8 10 10 10 10 9 9 9 9 9 9 9 9 9 9 9 9 9 8 7 6 7 6 6 6 5 8 7 6 7 10
9 4 8 14 10 6 9 7 8 9 6 3 7 9 8 6 7 8 8 8 7 6 6 6 6 6 7 7 8 8 8 7 7 7 7 7 7 7 7 9 7 6 8 10
18 19 13 7 7 7 7 8 8 7 8 8 7 6 6 7 7 7 7 6 7 7 7 7 7 7 8 9 10 10 9 9 8 8 6 8 9 7 8 7 6 7 10 9
Height
5588 5591 5593 5597 5599 5599 5600 5603 5602 5610 5608 5610 5612 5613 5610 5605 5605 5608 5606 5606 5607 5604 5603 5601 5599 5597 5595 5592 5589 5587 5583 5579 5575 5570 5565 5559 5554 5548 5542 5537 5533 5528 5523 5518
5577 5581 5579 5582 5589 5593 5591 5591 5591 5596 5597 5607 5605 5601 5597 5595 5595 5595 5596 5595 5595 5594 5592 5590 5588 5586 5583 5580 5577 5574 5570 5565 5561 5556 5550 5545 5539 5534 5529 5522 5517 5512 5506 5501
5566 5570 5569 5570 5581 5578 5580 5582 5583 5583 5590 5594 5592 5589 5587 5586 5588 5586 5583 5586 5586 5584 5582 5580 5578 5575 5573 5570 5566 5562 5558 5553 5548 5543 5537 5532 5525 5519 5512 5506 5500 5494 5488 5483
5555 5558 5553 5568 5568 5567 5569 5571 5573 5574 5579 5580 5578 5578 5580 5579 5578 5577 5575 5576 5575 5573 5572 5570 5568 5565 5562 5559 5555 5551 5547 5541 5537 5531 5525 5518 5510 5503 5496 5489 5481 5475 5468 5462
5543 5547 5548 5553 5561 5561 5560 5560 5565 5563 5566 5568 5567 5568 5569 5571 5568 5566 5566 5564 5564 5563 5562 5560 5558 5555 5552 5548 5545 5540 5535 5530 5525 5519 5511 5504 5497 5490 5482 5474 5466 5459 5451 5445
5535 5534 5536 5547 5549 5551 5550 5549 5555 5553 5556 5557 5557 5559 5555 5560 5558 5555 5556 5555 5555 5555 5553 5551 5549 5546 5542 5538 5535 5530 5525 5520 5514 5507 5500 5494 5487 5479 5470 5461 5453 5444 5437 5430
5523 5523 5527 5538 5539 5541 5537 5548 5541 5541 5543 5544 5546 5548 5548 5549 5549 5548 5548 5548 5547 5546 5544 5542 5539 5536 5533 5529 5525 5520 5516 5510 5505 5499 5493 5486 5478 5469 5461 5452 5443 5435 5426 5418
5516 5516 5518 5528 5526 5527 5531 5529 5529 5532 5533 5535 5537 5538 5538 5539 5539 5540 5541 5540 5539 5537 5535 5533 5530 5527 5523 5520 5516 5512 5508 5504 5498 5493 5486 5479 5471 5462 5453 5444 5435 5425 5416 5408
5510 5511 5513 5516 5517 5516 5516 5516 5518 5521 5524 5526 5528 5529 5529 5531 5531 5532 5532 5532 5531 5529 5527 5524 5522 5518 5516 5513 5510 5506 5502 5498 5493 5487 5481 5473 5465 5456 5447 5437 5427 5417 5407 5398
5498 5502 5504 5505 5508 5508 5507 5508 5511 5513 5515 5517 5520 5519 5520 5522 5523 5523 5524 5524 5522 5520 5519 5517 5514 5512 5510 5507 5504 5502 5498 5493 5488 5483 5476 5468 5460 5451 5442 5432 5421 5410 5399 5389
5491 5494 5497 5500 5500 5499 5502 5504 5506 5506 5507 5511 5513 5511 5513 5514 5515 5516 5516 5515 5514 5513 5512 5510 5508 5506 5505 5503 5501 5497 5494 5489 5484 5478 5471 5464 5456 5447 5437 5427 5416 5405 5393 5381
5486 5489 5492 5493 5492 5495 5497 5499 5500 5501 5503 5506 5507 5507 5507 5508 5508 5508 5508 5507 5507 5506 5505 5504 5503 5502 5501 5499 5497 5494 5490 5485 5480 5474 5467 5460 5451 5442 5433 5422 5410 5399 5388 5376
5481 5483 5484 5486 5489 5490 5492 5493 5495 5497 5499 5500 5501 5501 5500 5501 5501 5501 5501 5501 5500 5500 5499 5499 5499 5498 5497 5495 5493 5489 5486 5481 5476 5470 5464 5456 5448 5438 5427 5416 5405 5395 5384 5373
5477 5479 5480 5482 5484 5486 5488 5491 5493 5494 5494 5494 5494 5494 5495 5495 5495 5495 5495 5496 5495 5495 5495 5495 5495 5494 5494 5491 5488 5485 5482 5477 5472 5467 5460 5452 5443 5434 5424 5414 5403 5392 5381 5371
5473 5474 5476 5478 5480 5483 5485 5487 5488 5489 5489 5489 5490 5490 5490 5489 5490 5491 5491 5491 5490 5490 5491 5491 5491 5491 5489 5487 5484 5481 5477 5473 5468 5462 5455 5447 5439 5429 5420 5410 5401 5391 5380 5370
5469 5470 5473 5475 5477 5479 5481 5483 5483 5484 5484 5485 5485 5485 5485 5486 5486 5487 5487 5486 5486 5487 5487 5488 5488 5487 5485 5483 5480 5476 5472 5468 5463 5457 5450 5442 5434 5425 5417 5407 5398 5389 5379 5369
5462 5467 5470 5472 5474 5476 5477 5479 5479 5480 5481 5481 5481 5481 5482 5482 5483 5483 5483 5483 5483 5484 5484 5484 5484 5482 5481 5478 5475 5471 5467 5462 5457 5451 5444 5437 5429 5421 5412 5404 5394 5384 5375 5365
5461 5464 5467 5469 5471 5473 5474 5475 5475 5476 5477 5477 5477 5478 5479 5479 5480 5480 5480 5480 5480 5481 5481 5481 5480 5478 5476 5473 5469 5465 5461 5457 5451 5445 5439 5432 5424 5416 5408 5399 5390 5380 5370 5361
5459 5462 5464 5465 5467 5468 5470 5471 5472 5472 5473 5473 5474 5475 5475 5476 5476 5477 5477 5478 5478 5478 5477 5477 5475 5473 5471 5467 5464 5460 5455 5450 5445 5439 5433 5426 5419 5411 5403 5394 5385 5376 5366 5356
5457 5459 5460 5462 5463 5465 5466 5467 5468 5468 5469 5470 5470 5471 5473 5473 5473 5474 5474 5475 5474 5474 5473 5472 5470 5467 5464 5461 5457 5453 5448 5443 5438 5432 5426 5419 5411 5404 5396 5388 5379 5370 5361 5351
5454 5456 5457 5458 5460 5461 5462 5463 5465 5465 5466 5466 5467 5468 5469 5470 5470 5470 5470 5470 5470 5468 5467 5465 5464 5461 5458 5454 5450 5446 5441 5436 5430 5424 5418 5411 5404 5396 5389 5381 5372 5364 5355 5346
5451 5452 5453 5455 5456 5458 5459 5460 5461 5462 5462 5463 5464 5465 5465 5466 5466 5466 5465 5465 5464 5463 5461 5459 5457 5454 5450 5446 5442 5438 5433 5427 5422 5416 5409 5402 5395 5388 5381 5373 5365 5356 5347 5339
5446 5448 5450 5452 5453 5455 5456 5457 5458 5458 5459 5459 5460 5460 5461 5461 5461 5460 5460 5459 5458 5456 5454 5452 5449 5445 5442 5437 5433 5428 5424 5418 5412 5406 5400 5394 5386 5379 5372 5364 5356 5348 5339 5330
5443 5445 5447 5449 5450 5452 5452 5453 5454 5455 5455 5455 5456 5456 5456 5455 5455 5454 5453 5452 5450 5449 5446 5443 5440 5436 5432 5428 5424 5419 5414 5408 5403 5397 5391 5384 5377 5370 5363 5355 5347 5338 5330 5321
5440 5443 5444 5446 5447 5448 5449 5449 5450 5451 5451 5451 5451 5450 5450 5449 5449 5448 5446 5445 5442 5440 5438 5434 5431 5427 5423 5418 5414 5409 5404 5398 5393 5387 5381 5374 5367 5360 5353 5345 5337 5328 5320 5311
5435 5437 5440 5441 5443 5444 5445 5445 5446 5446 5446 5445 5445 5445 5444 5443 5442 5440 5439 5437 5434 5432 5429 5425 5421 5417 5413 5408 5403 5398 5393 5388 5382 5376 5370 5363 5357 5350 5343 5335 5326 5318 5309 5301
5431 5433 5436 5437 5438 5439 5439 5440 5440 5440 5440 5439 5439 5437 5436 5435 5434 5432 5430 5428 5425 5422 5419 5415 5411 5407 5402 5397 5392 5387 5382 5376 5371 5365 5359 5352 5346 5339 5332 5323 5315 5307 5298 5290